Retour au catalogue

STARLINK-4564

ActifCommunicationsVLEO
NORAD 53560·PAYLOAD·🇺🇸 United States

Lancé Aug 19, 2022 depuis Cape Canaveral Space Force Station

Loading…

Prochains Passages (prochaines 24 heures)

TLE

FraisSource: CelesTrak SupGP

Époque: Sep 15, 2026, 01:59 UTC

1 53560C 22101AK  26258.08312500  .00008003  00000+0  25725-3 0  2589
2 53560  53.1566 275.0141 0001243  92.0088 318.5277 15.31711331    14

Suivez STARLINK-4564 en temps réel avec AllMySat

Download on the App Store